Data No.,UTC Date,UTC Time,Latitude,Longitude,Course(deg),Temp(degC),Sal(psu)
6888,2007/7/3,19:06:00,00-00.1400N,144-53.1200E,342,30.112,34.5627
6889,2007/7/3,19:07:00,00-00.3500N,144-53.0600E,343,30.132,34.5511
6890,2007/7/3,19:08:00,00-00.5700N,144-52.9900E,343,30.139,34.5369
6891,2007/7/3,19:09:00,00-00.7800N,144-52.9300E,343,30.118,34.5307
6892,2007/7/3,19:10:00,00-00.9900N,144-52.8600E,342,30.149,34.533
6893,2007/7/3,19:11:00,00-01.2100N,144-52.8000E,343,30.17,34.5404
6894,2007/7/3,19:12:00,00-01.4200N,144-52.7400E,343,30.158,34.5463
6895,2007/7/3,19:13:00,00-01.6400N,144-52.6700E,343,30.159,34.559
6896,2007/7/3,19:14:00,00-01.8800N,144-52.6100E,343,30.161,34.574
6897,2007/7/3,19:15:00,00-02.0900N,144-52.5500E,344,30.168,34.5812
6898,2007/7/3,19:16:00,00-02.3100N,144-52.4900E,343,30.174,34.5949
6899,2007/7/3,19:17:00,00-02.5200N,144-52.4200E,342,30.177,34.6051
6900,2007/7/3,19:18:00,00-02.7400N,144-52.3500E,342,30.168,34.6115
6901,2007/7/3,19:19:00,00-02.9600N,144-52.2800E,342,30.163,34.6157
6902,2007/7/3,19:20:00,00-03.1700N,144-52.2100E,342,30.16,34.6157
6903,2007/7/3,19:21:00,00-03.3900N,144-52.1500E,342,30.165,34.6112
6904,2007/7/3,19:22:00,00-03.6000N,144-52.0800E,344,30.166,34.6106
6905,2007/7/3,19:23:00,00-03.8200N,144-52.0200E,343,30.167,34.6099
6906,2007/7/3,19:24:00,00-04.0300N,144-51.9500E,342,30.18,34.6117
6907,2007/7/3,19:25:00,00-04.2500N,144-51.8900E,342,30.179,34.6129
6908,2007/7/3,19:26:00,00-04.4600N,144-51.8200E,343,30.192,34.6126
6909,2007/7/3,19:27:00,00-04.6800N,144-51.7600E,342,30.2,34.6134
6910,2007/7/3,19:28:00,00-04.8900N,144-51.6900E,341,30.213,34.6171
6911,2007/7/3,19:29:00,00-05.1000N,144-51.6200E,341,30.221,34.6226
6912,2007/7/3,19:30:00,00-05.3200N,144-51.5500E,342,30.221,34.6332
6913,2007/7/3,19:31:00,00-05.5300N,144-51.4900E,343,30.217,34.6407
6914,2007/7/3,19:32:00,00-05.7500N,144-51.4200E,342,30.223,34.6434
6915,2007/7/3,19:33:00,00-05.9600N,144-51.3500E,342,30.196,34.6418
6916,2007/7/3,19:34:00,00-06.1800N,144-51.2900E,343,30.19,34.6416
6917,2007/7/3,19:35:00,00-06.4100N,144-51.2200E,344,30.127,34.6397
6918,2007/7/3,19:36:00,00-06.6200N,144-51.1600E,344,30.081,34.6337
6919,2007/7/3,19:37:00,00-06.8300N,144-51.1000E,343,30.078,34.6196
6920,2007/7/3,19:38:00,00-07.0500N,144-51.0300E,343,30.112,34.5759
6921,2007/7/3,19:39:00,00-07.2600N,144-50.9700E,342,30.14,34.5402
6922,2007/7/3,19:40:00,00-07.4800N,144-50.9000E,342,30.142,34.5241
6923,2007/7/3,19:41:00,00-07.6900N,144-50.8400E,342,30.163,34.5214
6924,2007/7/3,19:42:00,00-07.9000N,144-50.7700E,342,30.18,34.5224
6925,2007/7/3,19:43:00,00-08.1200N,144-50.7100E,342,30.185,34.5218
6926,2007/7/3,19:44:00,00-08.3300N,144-50.6400E,342,30.199,34.5338
6927,2007/7/3,19:45:00,00-08.5400N,144-50.5800E,343,30.213,34.5415
6928,2007/7/3,19:46:00,00-08.7600N,144-50.5100E,343,30.216,34.5477
6929,2007/7/3,19:47:00,00-08.9700N,144-50.4500E,343,30.221,34.5545
6930,2007/7/3,19:48:00,00-09.1800N,144-50.3800E,344,30.224,34.5591
6931,2007/7/3,19:49:00,00-09.4000N,144-50.3200E,342,30.229,34.5589
6932,2007/7/3,19:50:00,00-09.6100N,144-50.2500E,343,30.223,34.5604
6933,2007/7/3,19:51:00,00-09.8200N,144-50.1900E,343,30.217,34.5602
6934,2007/7/3,19:52:00,00-10.0300N,144-50.1300E,343,30.215,34.5574
6935,2007/7/3,19:53:00,00-10.2500N,144-50.0600E,343,30.219,34.5547
6936,2007/7/3,19:54:00,00-10.4600N,144-50.0000E,343,30.222,34.5507
6937,2007/7/3,19:55:00,00-10.6700N,144-49.9400E,342,30.218,34.5515
6938,2007/7/3,19:56:00,00-10.9000N,144-49.8600E,342,30.212,34.5538
6939,2007/7/3,19:57:00,00-11.1100N,144-49.8000E,342,30.205,34.5499
6940,2007/7/3,19:58:00,00-11.3200N,144-49.7300E,342,30.209,34.5444
6941,2007/7/3,19:59:00,00-11.5400N,144-49.6600E,343,30.2,34.5356
6942,2007/7/3,20:00:00,00-11.7500N,144-49.6000E,344,30.195,34.5308
6943,2007/7/3,20:01:00,00-11.9700N,144-49.5400E,343,30.185,34.531
6944,2007/7/3,20:02:00,00-12.1800N,144-49.4800E,342,30.18,34.5288
6945,2007/7/3,20:03:00,00-12.3900N,144-49.4100E,342,30.164,34.5192
6946,2007/7/3,20:04:00,00-12.6000N,144-49.3500E,343,30.157,34.5083
6947,2007/7/3,20:05:00,00-12.8100N,144-49.2800E,343,30.163,34.5002
6948,2007/7/3,20:06:00,00-13.0300N,144-49.2200E,343,30.176,34.4897
6949,2007/7/3,20:07:00,00-13.2400N,144-49.1500E,341,30.188,34.4843
6950,2007/7/3,20:08:00,00-13.4500N,144-49.0800E,342,30.186,34.4931
6951,2007/7/3,20:09:00,00-13.6600N,144-49.0200E,343,30.176,34.5048
6952,2007/7/3,20:10:00,00-13.8800N,144-48.9500E,343,30.172,34.5165
6953,2007/7/3,20:11:00,00-14.0900N,144-48.8900E,344,30.121,34.5132
6954,2007/7/3,20:12:00,00-14.3100N,144-48.8400E,344,30.052,34.4977
6955,2007/7/3,20:13:00,00-14.5300N,144-48.7700E,343,30.036,34.4711
6956,2007/7/3,20:14:00,00-14.7400N,144-48.7100E,343,30.022,34.4278
6957,2007/7/3,20:15:00,00-14.9600N,144-48.6500E,343,30.031,34.3816
6958,2007/7/3,20:16:00,00-15.1700N,144-48.5800E,343,30.036,34.3536
6959,2007/7/3,20:17:00,00-15.4000N,144-48.5100E,343,30.032,34.3331
6960,2007/7/3,20:18:00,00-15.6200N,144-48.4500E,342,30.025,34.3301
6961,2007/7/3,20:19:00,00-15.8300N,144-48.3800E,343,30.038,34.3252
6962,2007/7/3,20:20:00,00-16.0500N,144-48.3200E,342,30.036,34.308
6963,2007/7/3,20:21:00,00-16.2700N,144-48.2500E,343,30.033,34.3033
6964,2007/7/3,20:22:00,00-16.4800N,144-48.1900E,342,30.048,34.3077
6965,2007/7/3,20:23:00,00-16.7000N,144-48.1200E,343,30.05,34.3041
6966,2007/7/3,20:24:00,00-16.9200N,144-48.0600E,344,30.037,34.3108
6967,2007/7/3,20:25:00,00-17.1400N,144-48.0000E,344,29.998,34.3191
6968,2007/7/3,20:26:00,00-17.3600N,144-47.9300E,344,29.964,34.317
6969,2007/7/3,20:27:00,00-17.5700N,144-47.8700E,343,29.958,34.2877
6970,2007/7/3,20:28:00,00-17.7900N,144-47.8100E,343,29.972,34.2241
6971,2007/7/3,20:29:00,00-18.0100N,144-47.7500E,343,29.955,34.1691
6972,2007/7/3,20:30:00,00-18.2200N,144-47.6800E,342,29.961,34.1586
6973,2007/7/3,20:31:00,00-18.4400N,144-47.6200E,342,29.942,34.1514
6974,2007/7/3,20:32:00,00-18.6500N,144-47.5500E,343,29.942,34.1274
6975,2007/7/3,20:33:00,00-18.8600N,144-47.4900E,343,29.956,34.102
6976,2007/7/3,20:34:00,00-19.0800N,144-47.4300E,342,29.945,34.07
6977,2007/7/3,20:35:00,00-19.2900N,144-47.3600E,344,29.947,34.049
6978,2007/7/3,20:36:00,00-19.5000N,144-47.3000E,343,29.934,34.0315
6979,2007/7/3,20:37:00,00-19.7200N,144-47.2400E,343,29.962,34.0186
6980,2007/7/3,20:38:00,00-19.9400N,144-47.1700E,343,29.957,33.9992
6981,2007/7/3,20:39:00,00-20.1600N,144-47.1100E,343,29.964,33.9903
6982,2007/7/3,20:40:00,00-20.3700N,144-47.0400E,343,29.967,33.9943
6983,2007/7/3,20:41:00,00-20.5800N,144-46.9800E,343,29.955,33.9888
6984,2007/7/3,20:42:00,00-20.7900N,144-46.9200E,343,29.968,33.9891
6985,2007/7/3,20:43:00,00-21.0100N,144-46.8600E,343,29.962,33.9816
6986,2007/7/3,20:44:00,00-21.2200N,144-46.7900E,343,29.962,33.978
6987,2007/7/3,20:45:00,00-21.4300N,144-46.7300E,342,29.977,33.9935
6988,2007/7/3,20:46:00,00-21.6400N,144-46.6700E,343,29.975,34.0042
6989,2007/7/3,20:47:00,00-21.8500N,144-46.6100E,343,29.98,34.0213
6990,2007/7/3,20:48:00,00-22.0600N,144-46.5400E,343,29.989,34.0304
6991,2007/7/3,20:49:00,00-22.2700N,144-46.4800E,343,29.993,34.0393
6992,2007/7/3,20:50:00,00-22.4900N,144-46.4200E,344,30.004,34.051
6993,2007/7/3,20:51:00,00-22.7000N,144-46.3600E,343,29.984,34.0651
6994,2007/7/3,20:52:00,00-22.9100N,144-46.3000E,344,29.951,34.0768
6995,2007/7/3,20:53:00,00-23.1300N,144-46.2300E,342,30.022,34.0882
6996,2007/7/3,20:54:00,00-23.3400N,144-46.1700E,342,30.066,34.0735
6997,2007/7/3,20:55:00,00-23.5500N,144-46.1000E,342,30.074,34.1135
6998,2007/7/3,20:56:00,00-23.7600N,144-46.0300E,343,30.08,34.1821
6999,2007/7/3,20:57:00,00-23.9800N,144-45.9700E,344,30.068,34.2238
7000,2007/7/3,20:58:00,00-24.1900N,144-45.9100E,343,30.056,34.2345
7001,2007/7/3,20:59:00,00-24.4100N,144-45.8500E,343,30.055,34.235
7002,2007/7/3,21:00:00,00-24.6400N,144-45.7800E,343,30.083,34.2165
7003,2007/7/3,21:01:00,00-24.8500N,144-45.7200E,343,30.09,34.2093
7004,2007/7/3,21:02:00,00-25.0600N,144-45.6500E,343,30.086,34.2275
7005,2007/7/3,21:03:00,00-25.2700N,144-45.5900E,343,30.075,34.2458
7006,2007/7/3,21:04:00,00-25.4900N,144-45.5300E,343,30.079,34.2537
7007,2007/7/3,21:05:00,00-25.7000N,144-45.4700E,343,30.075,34.2542
7008,2007/7/3,21:06:00,00-25.9100N,144-45.4000E,343,30.076,34.258
7009,2007/7/3,21:07:00,00-26.1300N,144-45.3400E,344,30.043,34.266
7010,2007/7/3,21:08:00,00-26.3400N,144-45.2800E,344,30.038,34.2442
7011,2007/7/3,21:09:00,00-26.5600N,144-45.2200E,343,30.038,34.227
7012,2007/7/3,21:10:00,00-26.7600N,144-45.1500E,342,30.064,34.2266
7013,2007/7/3,21:11:00,00-26.9700N,144-45.0900E,342,30.085,34.2468
7014,2007/7/3,21:12:00,00-27.1900N,144-45.0200E,343,30.099,34.2714
7015,2007/7/3,21:13:00,00-27.4000N,144-44.9600E,343,30.097,34.2896
7016,2007/7/3,21:14:00,00-27.6200N,144-44.8900E,343,30.12,34.3078
7017,2007/7/3,21:15:00,00-27.8300N,144-44.8300E,343,30.122,34.3213
7018,2007/7/3,21:16:00,00-28.0400N,144-44.7700E,343,30.132,34.3416
7019,2007/7/3,21:17:00,00-28.2600N,144-44.7100E,343,30.127,34.3467
7020,2007/7/3,21:18:00,00-28.4700N,144-44.6400E,342,30.098,34.3484
7021,2007/7/3,21:19:00,00-28.6900N,144-44.5800E,343,30.064,34.3414
7022,2007/7/3,21:20:00,00-28.9200N,144-44.5100E,344,30.057,34.2884
7023,2007/7/3,21:21:00,00-29.1400N,144-44.4500E,344,30.045,34.2599
7024,2007/7/3,21:22:00,00-29.3500N,144-44.3900E,343,30.057,34.2373
7025,2007/7/3,21:23:00,00-29.5600N,144-44.3200E,342,30.07,34.2309
7026,2007/7/3,21:24:00,00-29.7800N,144-44.2600E,343,30.069,34.2467
7027,2007/7/3,21:25:00,00-30.0000N,144-44.2000E,344,30.063,34.2353
7028,2007/7/3,21:26:00,00-30.2100N,144-44.1400E,343,30.064,34.2273
7029,2007/7/3,21:27:00,00-30.4300N,144-44.0700E,343,30.09,34.2252
7030,2007/7/3,21:28:00,00-30.6400N,144-44.0000E,342,30.104,34.2473
7031,2007/7/3,21:29:00,00-30.8600N,144-43.9400E,342,30.112,34.2807
7032,2007/7/3,21:30:00,00-31.0800N,144-43.8700E,342,30.121,34.2977
7033,2007/7/3,21:31:00,00-31.3000N,144-43.8100E,344,30.105,34.3109
7034,2007/7/3,21:32:00,00-31.5100N,144-43.7500E,344,30.097,34.3127
7035,2007/7/3,21:33:00,00-31.7300N,144-43.6900E,345,30.091,34.282
7036,2007/7/3,21:34:00,00-31.9500N,144-43.6300E,343,30.081,34.2841
7037,2007/7/3,21:35:00,00-32.1600N,144-43.5600E,343,30.077,34.2779
7038,2007/7/3,21:36:00,00-32.3800N,144-43.5000E,343,30.075,34.2746
7039,2007/7/3,21:37:00,00-32.5900N,144-43.4400E,342,30.085,34.2646
7040,2007/7/3,21:38:00,00-32.8100N,144-43.3700E,342,30.093,34.284
7041,2007/7/3,21:39:00,00-33.0200N,144-43.3000E,341,30.117,34.3104
7042,2007/7/3,21:40:00,00-33.2300N,144-43.2300E,342,30.125,34.3338
7043,2007/7/3,21:41:00,00-33.4600N,144-43.1600E,342,30.12,34.3571
7044,2007/7/3,21:42:00,00-33.6800N,144-43.1000E,343,30.119,34.3617
7045,2007/7/3,21:43:00,00-33.8900N,144-43.0300E,343,30.111,34.3648
7046,2007/7/3,21:44:00,00-34.1000N,144-42.9700E,343,30.107,34.3663
7047,2007/7/3,21:45:00,00-34.3200N,144-42.9000E,342,30.108,34.3657
7048,2007/7/3,21:46:00,00-34.5400N,144-42.8400E,341,30.114,34.3686
7049,2007/7/3,21:47:00,00-34.7500N,144-42.7700E,342,30.124,34.3829
7050,2007/7/3,21:48:00,00-34.9700N,144-42.7000E,343,30.097,34.3965
7051,2007/7/3,21:49:00,00-35.1900N,144-42.6400E,342,30.103,34.391
7052,2007/7/3,21:50:00,00-35.4000N,144-42.5700E,342,30.117,34.3831
7053,2007/7/3,21:51:00,00-35.6200N,144-42.5100E,342,30.112,34.399
7054,2007/7/3,21:52:00,00-35.8300N,144-42.4400E,342,30.133,34.3998
7055,2007/7/3,21:53:00,00-36.0400N,144-42.3700E,342,30.13,34.4067
7056,2007/7/3,21:54:00,00-36.2600N,144-42.3000E,341,30.169,34.4116
7057,2007/7/3,21:55:00,00-36.4700N,144-42.2300E,342,30.132,34.4255
7058,2007/7/3,21:56:00,00-36.6800N,144-42.1700E,342,30.11,34.4259
7059,2007/7/3,21:57:00,00-36.8900N,144-42.1000E,342,30.111,34.4091
7060,2007/7/3,21:58:00,00-37.1100N,144-42.0300E,341,30.123,34.4021
7061,2007/7/3,21:59:00,00-37.3300N,144-41.9600E,341,30.126,34.4021
7062,2007/7/3,22:00:00,00-37.5400N,144-41.8900E,342,30.125,34.4064
7063,2007/7/3,22:01:00,00-37.7500N,144-41.8200E,342,30.12,34.3941
7064,2007/7/3,22:02:00,00-37.9600N,144-41.7600E,342,30.117,34.3832
7065,2007/7/3,22:03:00,00-38.2000N,144-41.6800E,341,30.131,34.3774
7066,2007/7/3,22:04:00,00-38.4100N,144-41.6100E,341,30.144,34.3844
7067,2007/7/3,22:05:00,00-38.6200N,144-41.5400E,342,30.171,34.3954
7068,2007/7/3,22:06:00,00-38.8300N,144-41.4700E,342,30.164,34.4159
7069,2007/7/3,22:07:00,00-39.0500N,144-41.4000E,342,30.161,34.4244
7070,2007/7/3,22:08:00,00-39.2700N,144-41.3300E,342,30.166,34.4194
7071,2007/7/3,22:09:00,00-39.4900N,144-41.2600E,343,30.171,34.4201
7072,2007/7/3,22:10:00,00-39.7000N,144-41.2000E,341,30.162,34.4283
7073,2007/7/3,22:11:00,00-39.9200N,144-41.1300E,342,30.143,34.4312
7074,2007/7/3,22:12:00,00-40.1300N,144-41.0600E,342,30.152,34.4157
7075,2007/7/3,22:13:00,00-40.3500N,144-40.9900E,342,30.155,34.4051
7076,2007/7/3,22:14:00,00-40.5600N,144-40.9200E,342,30.158,34.4021
7077,2007/7/3,22:15:00,00-40.7800N,144-40.8500E,341,30.206,34.4151
7078,2007/7/3,22:16:00,00-40.9900N,144-40.7800E,342,30.202,34.4384
7079,2007/7/3,22:17:00,00-41.2200N,144-40.7100E,342,30.189,34.479
7080,2007/7/3,22:18:00,00-41.4300N,144-40.6400E,341,30.202,34.4622
7081,2007/7/3,22:19:00,00-41.6500N,144-40.5700E,342,30.196,34.4729
7082,2007/7/3,22:20:00,00-41.8700N,144-40.5000E,342,30.194,34.4831
7083,2007/7/3,22:21:00,00-42.0800N,144-40.4400E,342,30.2,34.485
7084,2007/7/3,22:22:00,00-42.3000N,144-40.3700E,341,30.214,34.4929
7085,2007/7/3,22:23:00,00-42.5100N,144-40.3000E,342,30.2,34.5049
7086,2007/7/3,22:24:00,00-42.7500N,144-40.2300E,342,30.201,34.5117
7087,2007/7/3,22:25:00,00-42.9600N,144-40.1600E,342,30.17,34.5165
7088,2007/7/3,22:26:00,00-43.1800N,144-40.1000E,343,30.136,34.5075
7089,2007/7/3,22:27:00,00-43.3900N,144-40.0300E,343,30.131,34.4818
7090,2007/7/3,22:28:00,00-43.6100N,144-39.9700E,343,30.133,34.4822
7091,2007/7/3,22:29:00,00-43.8300N,144-39.9000E,342,30.153,34.4854
7092,2007/7/3,22:30:00,00-44.0400N,144-39.8300E,342,30.148,34.4946
7093,2007/7/3,22:31:00,00-44.2700N,144-39.7600E,342,30.134,34.5
7094,2007/7/3,22:32:00,00-44.4800N,144-39.7000E,343,30.129,34.4899
7095,2007/7/3,22:33:00,00-44.7100N,144-39.6300E,343,30.134,34.4826
7096,2007/7/3,22:34:00,00-44.9300N,144-39.5600E,343,30.133,34.4802
7097,2007/7/3,22:35:00,00-45.1500N,144-39.5000E,343,30.127,34.4841
7098,2007/7/3,22:36:00,00-45.3700N,144-39.4300E,342,30.129,34.477
7099,2007/7/3,22:37:00,00-45.5900N,144-39.3600E,342,30.136,34.4774
7100,2007/7/3,22:38:00,00-45.8100N,144-39.2900E,342,30.134,34.4815
7101,2007/7/3,22:39:00,00-46.0300N,144-39.2200E,343,30.127,34.4822
7102,2007/7/3,22:40:00,00-46.2500N,144-39.1600E,343,30.115,34.4791
7103,2007/7/3,22:41:00,00-46.4800N,144-39.0900E,343,30.106,34.4677
7104,2007/7/3,22:42:00,00-46.7000N,144-39.0300E,343,30.107,34.4574
7105,2007/7/3,22:43:00,00-46.9200N,144-38.9600E,343,30.12,34.4514
7106,2007/7/3,22:44:00,00-47.1400N,144-38.8900E,343,30.12,34.4535
7107,2007/7/3,22:45:00,00-47.3600N,144-38.8300E,343,30.112,34.4597
7108,2007/7/3,22:46:00,00-47.6000N,144-38.7600E,343,30.071,34.4538
7109,2007/7/3,22:47:00,00-47.8300N,144-38.6900E,343,30.039,34.4401
7110,2007/7/3,22:48:00,00-48.0400N,144-38.6300E,343,30.01,34.3842
7111,2007/7/3,22:49:00,00-48.2600N,144-38.5600E,342,30.028,34.3412
7112,2007/7/3,22:50:00,00-48.4800N,144-38.4900E,343,30.012,34.3535
7113,2007/7/3,22:51:00,00-48.7000N,144-38.4300E,343,30,34.3754
7114,2007/7/3,22:52:00,00-48.9300N,144-38.3700E,345,29.962,34.3504
7115,2007/7/3,22:53:00,00-49.1500N,144-38.3100E,345,29.947,34.3283
7116,2007/7/3,22:54:00,00-49.3600N,144-38.2500E,344,29.951,34.2995
7117,2007/7/3,22:55:00,00-49.5900N,144-38.1800E,343,29.972,34.2886
7118,2007/7/3,22:56:00,00-49.8000N,144-38.1200E,343,29.983,34.3197
7119,2007/7/3,22:57:00,00-50.0200N,144-38.0500E,343,29.97,34.3459
7120,2007/7/3,22:58:00,00-50.2400N,144-37.9900E,343,29.967,34.335
7121,2007/7/3,22:59:00,00-50.4600N,144-37.9300E,344,29.968,34.3218
7122,2007/7/3,23:00:00,00-50.6700N,144-37.8700E,343,29.986,34.3219
7123,2007/7/3,23:01:00,00-50.9000N,144-37.8000E,344,29.981,34.3383
7124,2007/7/3,23:02:00,00-51.1100N,144-37.7400E,344,29.986,34.3444
7125,2007/7/3,23:03:00,00-51.3300N,144-37.6800E,342,30.024,34.3391
7126,2007/7/3,23:04:00,00-51.5500N,144-37.6100E,343,30.037,34.3517
7127,2007/7/3,23:05:00,00-51.7600N,144-37.5500E,344,29.999,34.3719
7128,2007/7/3,23:06:00,00-51.9800N,144-37.4800E,343,29.982,34.3651
7129,2007/7/3,23:07:00,00-52.2200N,144-37.4200E,343,29.982,34.3429
7130,2007/7/3,23:08:00,00-52.4400N,144-37.3600E,343,29.969,34.337
7131,2007/7/3,23:09:00,00-52.6600N,144-37.2900E,344,29.984,34.3301
7132,2007/7/3,23:10:00,00-52.8700N,144-37.2300E,343,29.993,34.3341
7133,2007/7/3,23:11:00,00-53.0900N,144-37.1600E,343,30.001,34.3475
7134,2007/7/3,23:12:00,00-53.3100N,144-37.1000E,344,29.988,34.3498
7135,2007/7/3,23:13:00,00-53.5300N,144-37.0400E,344,30.003,34.3422
7136,2007/7/3,23:14:00,00-53.7500N,144-36.9800E,344,29.996,34.347
7137,2007/7/3,23:15:00,00-53.9700N,144-36.9200E,343,30.014,34.3534
7138,2007/7/3,23:16:00,00-54.1900N,144-36.8500E,343,30.035,34.3489
7139,2007/7/3,23:17:00,00-54.4000N,144-36.7800E,342,30.032,34.3676
7140,2007/7/3,23:18:00,00-54.6200N,144-36.7200E,343,30.024,34.377
7141,2007/7/3,23:19:00,00-54.8400N,144-36.6500E,343,30.01,34.3748
7142,2007/7/3,23:20:00,00-55.0600N,144-36.5900E,344,29.997,34.3667
7143,2007/7/3,23:21:00,00-55.2800N,144-36.5300E,342,29.998,34.3544
7144,2007/7/3,23:22:00,00-55.5000N,144-36.4600E,341,30.004,34.3514
7145,2007/7/3,23:23:00,00-55.7200N,144-36.3800E,341,30.02,34.3535
7146,2007/7/3,23:24:00,00-55.9400N,144-36.3100E,341,30.021,34.3611
7147,2007/7/3,23:25:00,00-56.1500N,144-36.2400E,342,30.032,34.366
7148,2007/7/3,23:26:00,00-56.3700N,144-36.1700E,341,30.038,34.3723
7149,2007/7/3,23:27:00,00-56.5800N,144-36.1000E,341,30.036,34.3806
7150,2007/7/3,23:28:00,00-56.8000N,144-36.0300E,341,30.024,34.3883
7151,2007/7/3,23:29:00,00-57.0300N,144-35.9500E,342,30.009,34.3857
7152,2007/7/3,23:30:00,00-57.2500N,144-35.8800E,342,29.955,34.3801
7153,2007/7/3,23:31:00,00-57.4700N,144-35.8000E,341,30.035,34.3605
7154,2007/7/3,23:32:00,00-57.6800N,144-35.7400E,341,29.917,34.3709
7155,2007/7/3,23:33:00,00-57.9000N,144-35.6700E,343,29.893,34.3436
7156,2007/7/3,23:34:00,00-58.1200N,144-35.6000E,343,29.894,34.2868
7157,2007/7/3,23:35:00,00-58.3400N,144-35.5300E,342,29.888,34.2707
7158,2007/7/3,23:36:00,00-58.5600N,144-35.4600E,342,29.885,34.2579
7159,2007/7/3,23:37:00,00-58.7700N,144-35.3900E,342,29.898,34.2463
7160,2007/7/3,23:38:00,00-58.9900N,144-35.3200E,342,29.898,34.2501
7161,2007/7/3,23:39:00,00-59.2000N,144-35.2600E,342,29.912,34.2555
7162,2007/7/3,23:40:00,00-59.4200N,144-35.1900E,342,29.923,34.2526
7163,2007/7/3,23:41:00,00-59.6300N,144-35.1200E,342,29.931,34.2658
7164,2007/7/3,23:42:00,00-59.8500N,144-35.0500E,342,29.937,34.2718
7165,2007/7/3,23:43:00,01-00.0700N,144-34.9800E,341,29.953,34.2734
7166,2007/7/3,23:44:00,01-00.2800N,144-34.9100E,341,29.959,34.28
7167,2007/7/3,23:45:00,01-00.4900N,144-34.8400E,341,29.966,34.2917
7168,2007/7/3,23:46:00,01-00.7100N,144-34.7700E,341,29.973,34.2961
7169,2007/7/3,23:47:00,01-00.9200N,144-34.7000E,342,29.981,34.3013
7170,2007/7/3,23:48:00,01-01.1400N,144-34.6300E,342,29.985,34.3045
7171,2007/7/3,23:49:00,01-01.3500N,144-34.5700E,342,29.988,34.3042
7172,2007/7/3,23:50:00,01-01.5700N,144-34.5000E,342,30.001,34.3062
7173,2007/7/3,23:51:00,01-01.7900N,144-34.4200E,341,30.015,34.3055
7174,2007/7/3,23:52:00,01-02.0100N,144-34.3500E,341,30.024,34.3086
7175,2007/7/3,23:53:00,01-02.2200N,144-34.2800E,341,30.028,34.3076
7176,2007/7/3,23:54:00,01-02.4400N,144-34.2100E,341,30.027,34.3122
7177,2007/7/3,23:55:00,01-02.6500N,144-34.1300E,341,30.033,34.3177
7178,2007/7/3,23:56:00,01-02.8700N,144-34.0600E,340,30.049,34.3133
7179,2007/7/3,23:57:00,01-03.0800N,144-33.9800E,340,30.065,34.3167
7180,2007/7/3,23:58:00,01-03.3000N,144-33.9100E,340,30.059,34.331
7181,2007/7/3,23:59:00,01-03.5100N,144-33.8400E,341,30.081,34.3447
7182,2007/7/4,0:00:00,01-03.7300N,144-33.7700E,341,30.09,34.3585
7183,2007/7/4,0:01:00,01-03.9400N,144-33.7000E,342,30.046,34.3726
7184,2007/7/4,0:02:00,01-04.1600N,144-33.6300E,343,30.025,34.3776
7185,2007/7/4,0:03:00,01-04.3800N,144-33.5600E,341,30.057,34.3462
7186,2007/7/4,0:04:00,01-04.5900N,144-33.4900E,341,30.086,34.3382
7187,2007/7/4,0:05:00,01-04.8000N,144-33.4100E,341,30.097,34.3591
7188,2007/7/4,0:06:00,01-05.0200N,144-33.3400E,341,30.071,34.3693
7189,2007/7/4,0:07:00,01-05.2300N,144-33.2700E,341,30.052,34.3645
7190,2007/7/4,0:08:00,01-05.4500N,144-33.2000E,341,30.034,34.3556
7191,2007/7/4,0:09:00,01-05.6600N,144-33.1300E,340,30.032,34.3393
7192,2007/7/4,0:10:00,01-05.8700N,144-33.0500E,341,30.04,34.339
7193,2007/7/4,0:11:00,01-06.0800N,144-32.9800E,340,30.064,34.3328
7194,2007/7/4,0:12:00,01-06.3000N,144-32.9100E,341,30.061,34.3414
7195,2007/7/4,0:13:00,01-06.5100N,144-32.8400E,340,30.062,34.3519
7196,2007/7/4,0:14:00,01-06.7200N,144-32.7700E,342,30.025,34.3492
7197,2007/7/4,0:15:00,01-06.9400N,144-32.7000E,343,29.832,34.3467
7198,2007/7/4,0:16:00,01-07.1500N,144-32.6400E,343,29.815,34.1899
7199,2007/7/4,0:17:00,01-07.3600N,144-32.5700E,342,29.826,34.1003
7200,2007/7/4,0:18:00,01-07.5700N,144-32.5100E,342,29.833,34.0886
7201,2007/7/4,0:19:00,01-07.7900N,144-32.4400E,342,29.841,34.0909
7202,2007/7/4,0:20:00,01-08.0000N,144-32.3700E,341,29.858,34.0928
7203,2007/7/4,0:21:00,01-08.2200N,144-32.3000E,341,29.882,34.0977
7204,2007/7/4,0:22:00,01-08.4300N,144-32.2300E,342,29.9,34.1086
7205,2007/7/4,0:23:00,01-08.6300N,144-32.1700E,342,29.928,34.1269
7206,2007/7/4,0:24:00,01-08.8400N,144-32.1000E,342,29.932,34.144
7207,2007/7/4,0:25:00,01-09.0500N,144-32.0300E,341,29.955,34.1638
7208,2007/7/4,0:26:00,01-09.2600N,144-31.9600E,341,29.974,34.1726
7209,2007/7/4,0:27:00,01-09.4700N,144-31.9000E,342,29.985,34.188
7210,2007/7/4,0:28:00,01-09.6800N,144-31.8300E,342,29.91,34.209
7211,2007/7/4,0:29:00,01-09.8900N,144-31.7600E,341,29.916,34.1829
7212,2007/7/4,0:30:00,01-10.1000N,144-31.6900E,340,29.929,34.1581
7213,2007/7/4,0:31:00,01-10.3100N,144-31.6200E,341,29.925,34.1712
7214,2007/7/4,0:32:00,01-10.5200N,144-31.5500E,342,29.918,34.1817
7215,2007/7/4,0:33:00,01-10.7300N,144-31.4900E,342,29.939,34.1841
7216,2007/7/4,0:34:00,01-10.9400N,144-31.4200E,341,29.951,34.1912
7217,2007/7/4,0:35:00,01-11.1500N,144-31.3500E,341,29.961,34.2109
7218,2007/7/4,0:36:00,01-11.3600N,144-31.2900E,342,29.955,34.222
7219,2007/7/4,0:37:00,01-11.5700N,144-31.2200E,342,29.965,34.2307
7220,2007/7/4,0:38:00,01-11.7800N,144-31.1500E,341,29.96,34.2367
7221,2007/7/4,0:39:00,01-11.9900N,144-31.0800E,341,29.998,34.2397
7222,2007/7/4,0:40:00,01-12.2000N,144-31.0200E,342,29.938,34.2587
7223,2007/7/4,0:41:00,01-12.4100N,144-30.9500E,343,29.923,34.2539
7224,2007/7/4,0:42:00,01-12.6400N,144-30.8800E,341,29.92,34.2307
7225,2007/7/4,0:43:00,01-12.8500N,144-30.8100E,342,29.921,34.2268
7226,2007/7/4,0:44:00,01-13.0700N,144-30.7400E,342,29.923,34.2279
7227,2007/7/4,0:45:00,01-13.2700N,144-30.6800E,342,29.912,34.2297
7228,2007/7/4,0:46:00,01-13.4800N,144-30.6100E,342,29.901,34.2275
7229,2007/7/4,0:47:00,01-13.7000N,144-30.5500E,343,29.868,34.2161
7230,2007/7/4,0:48:00,01-13.9100N,144-30.4900E,343,29.879,34.1932
7231,2007/7/4,0:49:00,01-14.1200N,144-30.4200E,342,29.891,34.1824
7232,2007/7/4,0:50:00,01-14.3300N,144-30.3600E,342,29.909,34.1826
7233,2007/7/4,0:51:00,01-14.5400N,144-30.2900E,342,29.925,34.1931
7234,2007/7/4,0:52:00,01-14.7500N,144-30.2200E,342,29.938,34.2041
7235,2007/7/4,0:53:00,01-14.9600N,144-30.1600E,342,29.934,34.216
7236,2007/7/4,0:54:00,01-15.1800N,144-30.0900E,342,29.953,34.2231
7237,2007/7/4,0:55:00,01-15.3800N,144-30.0200E,341,29.966,34.2324
7238,2007/7/4,0:56:00,01-15.5900N,144-29.9500E,342,29.979,34.2428
7239,2007/7/4,0:57:00,01-15.8100N,144-29.8900E,342,29.966,34.2573
7240,2007/7/4,0:58:00,01-16.0200N,144-29.8200E,342,29.968,34.2654